Location: Baix
(44.7118°N, 4.7648°E)
Time: 03:28:18
(UTC+00:00)

Cosmos 1025 Rocket - Pass Details

Date: 07 August 2020
Orbit: 594 x 618 km, 82.5° (Epoch: 27 September)

Event Time Altitude Azimuth Distance (km) Brightness Sun altitude
Rises 01:30:58 0° 342° (NNW) 2,851 7.1 -24.5°
Reaches altitude 10° 01:33:19 10° 333° (NNW) 1,941 6.0 -24.3°
Enters shadow 01:36:03 29° 301° (WNW) 1,109 4.3 -24.1°
